2022-002CW (51076 NORAD) Tracking and Keplerian Element Data

This shows tracking and keplerian element data for the satellite.

Feedback or suggestion? Click here.




ElementValue
Catalog51076
Name2022-002CW
Epoch Orbit443
Epoch Day42.89345139
Epoch Year2022
RAAN112.1563
Inclination97.5027
Eccentricity0.0015462
Argument of Perigee160.1714
Mean Anonmoly200.0122
Mean Motion15.14295112
Decay Rate5.729E-05
L11 51076U 22002CW 22042.89345139 .00005729 00000+0 31566-3 0 9993
L22 51076 97.5027 112.1563 0015462 160.1714 200.0122 15.14295112 4437



Live tracking and technical data element details for 2022-002CW (NORAD 51076). 2022-002CW can be tracked NOW for your location showing map with azimuth and elevation plus other details from your city location.







IsCatalogInMostPopularTable: catalog: 51076, numindb: 42
Update: records affected: 1



GetName: 51076 2022-002CW

Hit Count: updated at: Sun, 28 May 2023 07:01:19 GMT